Temp
3 3 3 2 1 2 1 1 1 0 0 1 1 1 1 1 1 2 3 3 4 5
2 2 1 1 0 0 -0 -0 -0 -0 -0 -0 0 1 1 1 1 1 1 2 2 3
2 1 0 0 -1 -1 -1 -1 -1 -1 -1 -0 -0 -0 -0 -0 0 1 1 1 2 2
1 0 -0 -1 -1 -2 -1 -1 -1 -1 -1 -1 -1 -1 -1 -1 -0 -1 -0 -0 1 2
0 -0 -1 -1 -2 -2 -2 -2 -2 -2 -2 -2 -2 -2 -2 -2 -2 -1 -2 -2 -1 0
1 -0 -1 -2 -2 -2 -3 -3 -3 -3 -3 -3 -3 -3 -3 -2 -2 -2 -2 -3 -3 -2
-1 -1 -2 -2 -2 -2 -2 -3 -4 -3 -3 -4 -4 -4 -4 -3 -3 -3 -3 -4 -4 -4
-2 -3 -3 -3 -3 -2 -3 -3 -4 -4 -4 -4 -5 -5 -5 -4 -4 -5 -5 -5 -5 -5
-4 -4 -5 -4 -4 -3 -4 -4 -5 -5 -5 -5 -6 -6 -6 -6 -5 -6 -7 -6 -6 -6
-5 -5 -5 -5 -5 -5 -5 -5 -5 -6 -6 -6 -7 -7 -7 -6 -6 -7 -8 -8 -8 -7
-5 -5 -5 -5 -5 -5 -5 -5 -6 -6 -7 -7 -7 -7 -8 -7 -7 -7 -8 -9 -8 -8
-5 -5 -5 -5 -5 -5 -5 -5 -6 -6 -7 -8 -8 -8 -8 -8 -8 -9 -9 -9 -9 -9
-5 -5 -6 -5 -5 -6 -5 -5 -5 -6 -7 -7 -8 -8 -8 -9 -8 -8 -9 -9 -10 -9
-5 -5 -5 -5 -6 -5 -5 -5 -5 -5 -6 -7 -8 -9 -8 -9 -9 -9 -9 -10 -10 -9
Height
802 801 799 798 796 792 790 787 785 782 778 774 771 767 763 759 756 753 751 747 746 742
804 803 801 799 797 795 792 789 786 783 778 773 769 765 761 756 752 749 747 743 740 737
805 803 802 801 799 796 793 790 788 783 778 773 768 764 760 755 751 747 743 738 735 732
806 806 804 803 800 797 795 792 788 783 778 773 768 764 759 755 750 746 740 736 731 727
808 807 805 804 802 800 795 793 789 784 779 774 770 764 759 753 748 743 737 732 727 721
808 807 806 805 803 800 797 795 791 787 782 778 773 767 761 754 749 744 738 732 726 719
809 808 807 806 805 802 799 798 794 791 788 783 777 770 763 756 751 745 739 733 727 720
811 810 809 808 807 805 803 801 798 795 792 786 781 775 767 759 754 749 742 735 728 720
813 813 811 809 808 808 806 804 802 799 795 790 784 777 770 763 758 753 747 739 731 724
814 814 813 811 810 810 809 807 804 801 797 793 786 781 773 768 762 757 752 745 737 729
816 815 815 814 812 811 811 809 806 804 800 796 791 784 775 769 766 762 757 751 745 738
819 817 817 816 814 813 812 811 809 807 803 800 795 787 779 773 770 766 762 758 752 746
820 820 819 818 816 816 815 814 812 810 808 804 799 792 786 780 776 772 767 761 756 750
822 821 821 821 819 818 817 816 814 812 810 806 802 797 793 788 783 779 774 768 762 757
Wind_Speed
14 14 14 15 16 16 17 18 20 20 20 20 20 20 20 20 21 20 22 21 22 23
14 14 15 15 15 16 16 18 19 19 19 19 20 20 20 21 21 22 23 23 24 26
14 15 15 15 16 17 18 18 19 19 19 19 20 21 20 20 21 23 23 24 25 26
13 13 14 15 16 17 18 19 20 21 21 22 22 21 20 20 19 20 22 23 25 26
11 12 13 15 16 17 19 20 21 22 23 24 25 24 22 20 20 21 23 23 24 21
11 12 13 14 15 16 18 20 21 22 24 24 25 25 23 19 21 21 22 22 22 22
12 12 13 13 15 16 17 19 20 21 22 23 25 26 24 21 22 23 24 23 24 23
10 11 12 12 13 15 16 18 19 20 21 25 26 28 27 22 24 24 26 28 28 29
10 11 12 13 14 14 15 16 18 20 20 25 27 30 26 23 23 26 29 33 32 32
11 11 12 12 14 15 16 16 18 22 24 25 32 33 26 23 23 25 29 33 36 34
11 12 11 13 14 16 16 18 20 21 24 23 30 34 32 24 24 25 28 32 37 36
11 13 12 14 14 15 15 16 18 20 23 26 28 35 35 27 25 27 26 28 33 38
11 12 14 13 14 14 14 14 15 17 21 23 28 32 34 31 26 26 27 28 32 37
11 12 11 12 14 13 12 12 14 16 19 25 28 31 32 32 29 25 25 27 31 34
Wind_Direction
19 11 4 356 349 347 343 339 335 334 332 330 324 320 315 310 304 296 289 285 280 281
26 21 11 5 0 352 349 343 337 337 335 335 331 325 322 316 309 301 295 289 284 276
29 25 20 11 8 4 357 351 346 346 345 342 339 336 330 322 313 304 298 293 285 279
30 25 23 15 11 9 5 1 359 358 356 353 350 344 339 331 326 323 318 309 296 285
30 26 25 17 13 11 12 8 6 5 3 0 356 352 347 344 342 338 332 324 318 299
34 30 26 18 16 16 16 13 11 11 8 3 1 359 355 355 353 351 348 340 334 328
37 33 32 27 23 21 21 17 15 12 10 8 8 6 3 2 3 3 1 358 354 347
38 37 39 36 31 29 26 23 21 15 14 13 14 9 10 12 14 13 12 11 8 4
46 39 42 44 39 34 30 27 24 21 17 17 15 12 14 17 19 16 14 14 14 13
54 46 43 49 48 41 35 30 26 21 19 17 16 13 17 20 24 22 17 17 16 15
54 54 49 51 50 42 39 34 30 23 21 19 17 16 18 22 24 23 23 21 22 19
57 56 52 52 48 42 39 34 32 28 23 21 18 19 20 21 20 21 20 22 25 23
64 61 55 50 48 43 41 36 32 33 28 25 23 23 23 22 19 19 16 17 20 24
69 63 56 55 50 42 37 36 33 32 31 27 25 24 23 25 25 18 18 19 17 19